Wind_Speed
7 7 7 6 7 7 8 9 9 9 9 9 8 7 6 5 3 3 3 3 4 6 7 8 8 6 3 2 3 2 1 1 2 2 3 4 5 6 7 7 7 7 7
8 8 7 6 6 7 8 8 9 9 9 8 8 7 7 6 6 5 4 4 4 5 6 7 7 6 4 2 3 3 3 2 2 2 3 3 4 4 6 6 6 6 6
9 8 7 6 6 7 7 8 8 9 9 8 8 8 7 8 8 7 6 6 6 5 6 6 6 6 5 3 2 3 4 3 3 2 2 2 3 3 3 4 4 5 5
8 8 7 7 6 6 6 7 8 8 9 8 9 9 9 9 10 10 10 9 9 8 8 7 6 6 5 3 2 1 4 4 3 2 2 2 2 2 2 2 3 4 4
7 6 6 6 6 6 6 7 7 8 9 9 10 11 12 12 13 13 13 13 12 12 11 10 9 8 7 5 3 2 1 3 4 4 2 2 1 2 2 2 3 4 5
7 7 6 6 7 7 7 8 9 10 10 11 12 13 14 15 15 16 16 16 16 15 15 14 13 11 10 10 8 5 3 2 4 5 5 4 3 3 3 4 4 5 5
9 9 9 9 9 10 11 11 12 13 14 14 15 16 17 18 18 18 19 19 19 19 18 18 17 16 14 13 12 10 8 6 5 6 6 7 7 7 6 5 5 6 7
12 12 13 14 14 14 15 16 17 18 19 19 20 21 22 22 21 21 22 22 22 22 21 21 21 20 19 18 17 16 14 11 10 9 9 9 9 9 10 10 9 7 8
15 16 17 18 18 19 20 21 22 23 24 24 25 25 26 27 26 26 25 25 25 25 24 24 24 23 23 22 21 20 19 17 15 14 13 13 13 12 12 12 12 12 10
18 19 21 22 24 25 26 26 27 28 28 29 29 30 30 30 31 31 30 28 27 27 26 26 26 26 26 26 25 25 23 22 21 19 18 17 17 17 16 16 16 16 15
21 23 25 27 29 30 31 32 32 32 32 33 34 34 34 33 34 35 34 32 31 30 28 27 27 27 27 28 28 28 26 26 25 24 22 21 21 21 20 20 19 19 18
26 27 29 30 31 32 34 36 36 35 33 34 36 37 39 38 38 38 37 36 34 33 32 30 29 28 28 28 29 29 28 28 28 27 25 24 23 23 23 24 23 22 21
29 30 32 32 33 35 36 37 36 35 35 34 35 38 40 40 41 40 40 38 37 35 34 32 31 30 29 29 29 28 27 27 27 26 25 25 24 24 25 25 25 25 25
30 33 34 34 35 36 37 37 37 37 35 34 36 39 40 41 42 42 41 41 39 37 35 34 33 31 30 30 29 28 26 26 25 24 24 24 25 24 24 25 26 26 27
33 34 35 35 36 37 38 38 37 36 35 35 37 38 41 42 44 43 43 42 41 40 38 36 35 33 31 30 29 27 26 25 24 24 23 22 23 23 23 24 23 25 27
34 35 36 36 37 39 38 38 37 35 34 35 36 39 42 43 44 45 44 44 43 41 40 38 36 35 33 31 29 28 26 26 25 24 24 21 21 21 22 22 21 22 24
35 36 37 38 39 39 39 39 38 35 35 35 37 40 41 41 42 44 44 44 44 44 42 40 38 36 33 31 30 29 28 26 26 25 25 24 22 22 21 21 21 21 21
35 37 38 40 41 41 41 40 38 36 35 35 37 38 38 38 39 42 45 45 46 45 43 40 38 36 33 32 31 30 29 28 28 27 26 25 24 23 23 22 22 22 22
36 38 40 41 41 41 41 40 37 36 36 36 36 36 35 33 35 39 41 43 45 44 42 40 39 37 35 34 32 31 30 29 29 29 27 26 25 24 23 22 23 23 23
37 38 39 40 40 40 39 38 37 37 37 36 36 35 32 30 29 33 37 39 42 43 42 40 40 38 37 35 33 32 31 31 30 29 28 27 25 23 22 22 21 22 23
35 36 37 38 38 37 37 37 37 37 37 37 36 33 31 28 27 27 32 36 40 42 41 40 40 39 37 36 34 33 32 32 31 30 29 27 26 24 22 20 19 19 20
33 34 35 36 37 37 37 38 38 38 38 37 36 34 31 28 26 24 28 34 39 40 41 41 39 38 37 36 34 33 32 31 30 30 29 27 26 23 21 19 17 16 17
33 34 36 37 38 39 40 40 40 39 39 38 37 35 33 30 27 26 26 29 33 36 38 40 39 37 36 35 34 32 31 31 30 29 29 28 26 23 21 19 17 16 16
35 36 38 39 40 40 41 42 42 41 40 39 38 37 35 33 31 29 28 28 28 30 33 35 36 35 35 35 34 33 32 31 30 30 29 28 27 25 22 20 19 17 16
35 37 38 39 41 42 43 43 43 43 42 41 40 38 38 36 35 34 33 32 31 31 32 34 34 34 35 35 35 34 33 32 32 32 31 30 28 27 24 23 20 18 17
36 38 39 40 42 44 45 45 45 44 43 42 41 40 39 39 38 38 38 37 36 36 36 37 37 37 36 37 37 37 36 35 35 34 34 32 31 29 27 25 23 21 19
Wind_Direction
328 323 321 329 339 338 332 323 314 312 317 319 313 300 294 298 319 345 355 1 4 4 4 5 10 8 338 273 246 221 193 144 121 117 117 108 100 105 121 131 127 117 109
321 318 319 336 351 347 338 327 316 309 311 313 308 296 288 291 300 309 313 317 324 334 344 351 2 12 12 321 253 228 211 193 167 152 139 124 111 106 113 125 131 128 122
317 316 317 334 346 344 337 329 319 309 304 302 297 288 282 284 291 294 294 290 290 297 312 328 338 351 8 11 287 235 219 207 193 178 155 138 125 116 115 126 134 139 139
318 320 323 335 340 335 328 320 311 304 298 292 288 284 281 282 286 287 286 282 279 279 285 295 306 314 326 347 357 252 224 222 220 213 184 164 147 141 143 161 173 170 163
318 322 329 337 333 322 314 307 301 295 290 286 284 282 281 282 285 286 285 281 277 275 275 276 280 287 291 295 306 311 242 230 233 237 232 217 211 199 190 199 208 204 193
312 317 323 324 318 311 303 298 294 291 287 285 283 282 282 282 283 284 282 278 274 272 271 270 270 273 276 277 278 280 275 257 245 245 248 246 240 237 228 222 222 220 210
304 306 306 307 305 302 299 296 293 290 288 287 286 285 284 283 282 282 280 277 273 270 269 268 266 264 266 266 267 269 269 265 258 254 253 252 249 245 241 237 231 227 224
297 298 298 298 297 297 297 296 294 292 290 291 290 289 288 286 284 283 280 277 273 268 266 265 263 261 260 260 260 261 263 262 261 260 258 256 253 250 245 242 236 230 226
290 292 294 296 296 296 295 295 294 293 294 294 294 292 291 289 286 284 281 277 273 269 265 264 262 260 258 257 256 256 258 260 261 260 259 256 254 252 248 244 239 232 226
289 293 295 296 296 295 293 292 291 291 292 292 292 291 291 288 285 282 280 277 274 270 267 264 261 260 258 256 255 255 255 258 260 260 260 256 254 252 250 245 241 234 227
291 293 294 296 296 294 294 293 293 292 292 291 290 289 290 288 283 280 278 276 273 270 267 265 261 259 257 256 255 254 254 255 258 259 259 257 254 252 251 248 244 239 231
291 293 295 296 296 297 297 297 297 295 294 293 291 289 287 286 283 279 275 272 270 269 267 265 261 260 258 257 256 254 254 254 255 257 257 257 255 252 251 249 246 242 237
289 293 294 294 295 297 297 298 298 297 296 296 296 293 288 285 283 280 273 268 265 264 265 264 262 260 259 258 257 255 254 252 252 254 256 257 257 255 254 251 248 243 239
287 290 291 293 295 297 297 300 301 298 296 296 298 297 292 287 282 277 272 267 263 262 262 261 261 260 258 258 257 256 255 253 251 252 256 256 257 256 255 255 253 245 238
286 290 293 295 295 296 298 300 302 300 297 296 297 298 294 289 282 275 269 264 262 261 259 257 258 258 257 256 256 255 253 251 250 251 255 255 253 252 254 254 253 247 241
286 289 292 293 293 296 299 301 302 300 299 297 298 298 294 288 279 271 265 261 259 259 257 255 255 256 254 254 253 252 250 249 249 252 251 251 250 249 251 250 248 246 245
284 287 289 290 291 294 297 300 302 300 299 299 299 299 296 288 276 267 261 257 256 255 254 253 253 252 250 250 250 249 248 248 248 250 250 250 250 251 251 250 249 248 247
284 286 288 289 292 294 296 298 300 298 299 300 300 300 297 286 274 263 258 255 253 254 253 251 251 249 248 248 247 247 246 246 247 248 249 250 252 253 252 250 251 250 249
287 289 291 292 293 294 296 297 297 297 298 300 301 302 298 288 274 263 257 252 251 251 251 250 250 248 246 246 245 244 243 243 244 246 247 248 250 251 251 250 251 252 251
291 293 294 295 295 296 296 296 296 296 298 301 304 305 301 293 280 264 254 251 250 248 248 248 248 245 244 244 243 243 243 242 244 245 246 247 249 250 250 250 250 251 251
295 296 297 297 298 297 296 295 295 296 297 299 303 304 302 296 285 272 256 250 249 246 244 245 244 242 241 241 242 242 242 243 243 244 244 244 245 246 246 246 247 249 250
299 299 300 299 297 295 295 294 294 294 295 297 299 300 301 297 289 281 261 252 248 244 243 243 241 240 239 239 240 240 241 241 240 240 240 241 241 240 240 241 243 245 248
302 301 300 299 297 296 295 294 294 294 294 294 294 293 292 291 286 279 273 260 251 246 243 241 238 237 238 239 239 239 239 239 237 236 236 237 237 235 235 235 237 242 247
302 300 299 298 297 296 295 294 293 292 291 290 288 287 285 282 278 274 267 263 258 252 247 242 238 237 237 238 238 239 238 238 237 235 233 233 233 231 232 233 235 239 245
301 300 299 298 297 296 295 294 292 291 290 288 286 284 281 277 273 267 262 259 257 254 251 246 240 238 237 237 237 237 237 236 235 234 232 231 230 230 231 234 235 238 242
302 301 300 298 296 295 293 292 291 289 288 286 285 282 279 275 271 266 261 257 253 251 249 247 243 240 237 236 236 236 235 234 233 232 231 230 229 229 230 233 235 237 240
Height
5922 5921 5920 5920 5919 5919 5918 5918 5918 5917 5917 5916 5915 5914 5913 5911 5910 5909 5907 5906 5905 5905 5904 5903 5902 5901 5900 5899 5899 5898 5898 5898 5897 5897 5896 5896 5895 5895 5895 5895 5895 5896 5896
5920 5919 5919 5918 5918 5917 5917 5917 5917 5916 5916 5915 5914 5913 5912 5911 5910 5908 5907 5906 5905 5904 5903 5903 5902 5901 5900 5899 5899 5898 5898 5898 5898 5897 5897 5896 5896 5896 5896 5896 5896 5896 5897
5918 5917 5916 5916 5916 5916 5916 5916 5915 5915 5914 5913 5912 5912 5911 5910 5909 5908 5906 5905 5904 5903 5903 5902 5901 5900 5900 5899 5899 5898 5898 5898 5897 5897 5897 5896 5896 5896 5896 5896 5896 5897 5897
5916 5915 5914 5914 5914 5914 5914 5914 5914 5913 5912 5911 5911 5910 5909 5909 5908 5907 5906 5904 5904 5903 5902 5901 5900 5900 5899 5899 5898 5898 5898 5898 5897 5897 5896 5896 5896 5896 5896 5897 5897 5897 5898
5914 5913 5912 5912 5912 5912 5912 5912 5912 5911 5910 5909 5909 5908 5907 5907 5906 5905 5904 5903 5902 5902 5901 5900 5899 5899 5898 5898 5898 5897 5897 5897 5897 5897 5896 5896 5896 5896 5896 5897 5897 5897 5898
5912 5912 5911 5911 5911 5910 5910 5910 5909 5909 5908 5907 5907 5906 5905 5904 5903 5902 5901 5901 5900 5899 5899 5899 5898 5897 5897 5897 5896 5896 5896 5896 5896 5896 5896 5896 5896 5896 5896 5897 5897 5897 5897
5911 5910 5910 5909 5909 5909 5908 5908 5907 5907 5906 5905 5904 5903 5902 5901 5900 5899 5898 5898 5897 5897 5896 5896 5896 5895 5895 5895 5895 5895 5895 5895 5895 5895 5895 5895 5896 5896 5896 5896 5896 5896 5897
5909 5909 5908 5908 5907 5907 5906 5906 5905 5904 5903 5902 5901 5900 5899 5898 5897 5896 5895 5894 5893 5893 5892 5892 5892 5892 5892 5892 5892 5892 5893 5893 5894 5894 5894 5894 5895 5895 5895 5895 5895 5895 5896
5907 5906 5906 5905 5905 5904 5903 5902 5901 5900 5899 5898 5897 5896 5895 5894 5893 5891 5891 5890 5889 5888 5888 5888 5888 5888 5889 5889 5889 5889 5890 5890 5891 5892 5892 5892 5892 5893 5893 5893 5893 5894 5894
5905 5904 5903 5902 5901 5900 5899 5898 5897 5895 5894 5893 5892 5890 5889 5888 5887 5886 5885 5884 5884 5883 5883 5883 5883 5884 5884 5884 5885 5885 5886 5887 5887 5888 5889 5889 5890 5890 5890 5891 5891 5891 5892
5902 5901 5900 5899 5897 5895 5894 5893 5892 5890 5889 5887 5886 5884 5883 5881 5880 5879 5879 5878 5878 5878 5877 5877 5878 5878 5879 5879 5879 5880 5881 5882 5883 5883 5884 5885 5886 5886 5886 5887 5887 5888 5888
5900 5898 5896 5895 5893 5891 5889 5887 5885 5884 5882 5880 5878 5877 5875 5873 5872 5871 5871 5871 5871 5871 5871 5871 5871 5872 5872 5873 5873 5874 5876 5877 5878 5878 5879 5880 5881 5881 5882 5882 5883 5884 5885
5895 5894 5892 5890 5888 5886 5884 5882 5879 5876 5874 5872 5870 5867 5865 5864 5862 5861 5861 5862 5862 5863 5864 5865 5865 5865 5866 5867 5867 5868 5870 5871 5872 5873 5873 5874 5875 5876 5876 5877 5878 5879 5880
5891 5889 5887 5885 5883 5880 5878 5876 5872 5869 5867 5864 5862 5859 5855 5854 5853 5852 5852 5853 5853 5855 5856 5857 5858 5859 5859 5860 5861 5862 5863 5865 5866 5867 5868 5869 5869 5870 5870 5871 5872 5873 5875
5885 5883 5881 5879 5877 5874 5872 5869 5866 5862 5859 5856 5854 5850 5846 5844 5842 5842 5842 5843 5844 5846 5848 5849 5850 5851 5852 5853 5854 5856 5857 5858 5860 5861 5862 5863 5863 5864 5865 5866 5866 5867 5869
5878 5877 5874 5872 5870 5867 5864 5861 5858 5854 5851 5848 5845 5841 5836 5833 5831 5831 5832 5834 5835 5837 5839 5841 5842 5844 5845 5846 5848 5849 5851 5852 5854 5855 5857 5857 5858 5859 5860 5861 5862 5863 5864
5872 5870 5868 5865 5862 5859 5856 5853 5850 5846 5843 5840 5836 5831 5826 5821 5819 5819 5821 5823 5826 5827 5830 5832 5834 5836 5838 5839 5841 5843 5844 5846 5848 5849 5851 5852 5853 5854 5856 5857 5858 5858 5860
5866 5863 5860 5857 5854 5851 5848 5845 5842 5838 5835 5831 5827 5821 5815 5811 5808 5808 5810 5813 5816 5818 5821 5824 5826 5828 5830 5832 5834 5836 5838 5840 5841 5843 5845 5846 5848 5849 5851 5852 5853 5854 5855
5858 5855 5851 5848 5845 5842 5839 5836 5833 5830 5826 5822 5817 5812 5806 5802 5799 5799 5800 5803 5806 5810 5813 5816 5819 5821 5823 5825 5827 5829 5831 5833 5835 5837 5839 5840 5842 5843 5845 5847 5848 5849 5850
5849 5846 5843 5839 5836 5833 5830 5827 5824 5821 5818 5813 5809 5803 5798 5794 5792 5791 5792 5795 5798 5801 5805 5808 5810 5813 5815 5818 5820 5822 5824 5826 5828 5831 5832 5834 5836 5838 5839 5841 5843 5844 5845
5841 5837 5834 5830 5827 5824 5821 5818 5816 5812 5809 5805 5801 5797 5792 5788 5787 5785 5786 5788 5790 5793 5796 5799 5802 5804 5807 5810 5812 5815 5817 5819 5822 5824 5826 5828 5830 5832 5834 5836 5837 5839 5840
5833 5830 5826 5822 5819 5816 5812 5810 5807 5804 5800 5797 5794 5790 5787 5784 5782 5780 5781 5781 5782 5784 5787 5790 5793 5796 5798 5801 5804 5807 5810 5813 5815 5817 5820 5822 5825 5827 5829 5831 5833 5834 5836
5826 5822 5818 5815 5811 5807 5803 5800 5797 5794 5791 5788 5785 5783 5780 5779 5777 5776 5776 5776 5776 5777 5779 5781 5784 5787 5790 5793 5796 5800 5803 5806 5808 5811 5813 5816 5819 5821 5823 5826 5828 5829 5831
5819 5815 5811 5806 5802 5798 5794 5790 5787 5784 5781 5778 5776 5774 5772 5771 5770 5769 5769 5769 5769 5770 5771 5772 5775 5778 5781 5784 5788 5792 5795 5798 5802 5804 5807 5810 5813 5815 5818 5820 5823 5825 5827
5812 5808 5803 5798 5793 5788 5784 5780 5776 5773 5770 5768 5766 5764 5762 5761 5761 5761 5761 5761 5761 5762 5763 5764 5766 5769 5772 5775 5779 5783 5787 5790 5794 5797 5801 5804 5807 5810 5812 5815 5818 5820 5823
5805 5800 5795 5790 5784 5778 5774 5769 5765 5762 5759 5756 5754 5753 5752 5750 5750 5750 5750 5750 5751 5752 5753 5755 5756 5759 5763 5766 5770 5774 5778 5782 5786 5790 5794 5797 5800 5804 5807 5809 5812 5815 5818